Terug naar catalogus

COSMOS 1818 COOLANT

ActiefLEO
NORAD 50792·DEBRIS·🇷🇺 Russia

Gelanceerd Feb 1, 1987 vanaf Baikonur Cosmodrome

Loading…

Volgende Passages (komende 24 uur)

TLE

VersSource: Space-Track

Epoch: Sep 13, 2026, 09:13 UTC

1 50792U 87011BH  26256.38429567  .00000403  00000-0  16162-3 0  9991
2 50792  65.0097 289.6828 0021481 276.5014  96.8214 14.39352148113517

Volg COSMOS 1818 COOLANT in realtime met AllMySat

Download on the App Store